Location: Bogda?czew
(52.0389°N, 19.3038°E)
Time: 06:27:13
(UTC+00:00)

Daily predictions for brighter satellites

Satellite Brightness Start Highest point End
(mag) Time Altitude Azimuth Time Altitude Azimuth Time Altitude Azimuth
Cosmos 389 Rocket 4.5 18:37:27 10° NNW 18:40:31 30° W 18:43:36 10° SSW
H-2A R/B 3.7 18:35:57 10° SSW 18:40:33 35° W 18:45:06 10° NNW
Meteor 1-4 Rocket 2.4 18:38:31 10° NNW 18:42:00 90° NE 18:45:27 10° SSE
USA 186 3.3 18:40:15 10° SSW 18:42:10 24° W 18:44:07 10° NW
Cosmos 1862 Rocket 3.7 18:38:19 10° N 18:42:45 59° ENE 18:47:06 10° SSE
Cosmos 2360 Rocket 3.4 18:39:20 10° NNW 18:44:19 30° NE 18:49:16 10° ESE
ATLAS 3B R/B 4.1 18:42:01 10° SE 18:45:04 14° ESE 18:48:07 10° ENE
Cosmos 676 Rocket 4.2 18:41:40 10° S 18:46:52 56° ESE 18:52:07 10° NNE
USA 234 3.7 18:43:33 10° E 18:50:00 64° NNE 18:56:28 10° WNW
Terra 3.7 18:50:06 10° E 18:53:05 17° NE 18:56:04 10° NNE
Cosmos 1934 Rocket 4.1 18:47:10 10° S 18:53:28 66° E 18:59:45 10° NNE
Cosmos 1980 Rocket 2.9 18:48:00 10° NW 18:53:34 56° WSW 18:59:02 10° S
Cosmos 468 Rocket 4.2 18:48:36 10° NNW 18:53:55 65° ENE 18:59:09 10° SE
Cosmos 1238 Rocket 3.3 18:52:21 10° SSE 18:54:49 24° E 18:57:24 10° NNE
USA 276 2.6 18:51:49 10° W 18:54:53 45° SSW 18:57:49 11° ESE
X-37B 2.3 18:53:17 10° WSW 18:55:42 20° S 18:58:07 10° SE
CZ-2C R/B 3.8 18:52:27 10° NNE 18:56:59 57° E 19:01:24 10° S
Cosmos 44 3.6 18:52:22 10° NW 18:57:11 64° NE 19:02:11 10° SE
IGS 5A 4.3 18:53:28 10° SE 18:57:15 36° ENE 19:01:05 10° N
Lacrosse 5 2.2 18:52:37 10° WNW 18:57:38 61° SW 19:02:37 10° SE
Resurs 01 Rocket 1.6 18:58:38 10° SSE 19:03:04 82° ENE 19:07:32 10° NNW
Cosmos 1833 Rocket 3.4 18:59:35 10° SW 19:05:08 59° NW 19:10:44 10° NNE
GP-B 3.3 19:01:34 10° N 19:05:56 51° E 19:10:16 10° SSE
Cosmos 1602 4.5 19:03:27 10° SSE 19:07:01 34° E 19:10:37 10° NNE
SPOT 3 Rocket 3.9 19:02:50 10° S 19:08:01 70° WSW 19:13:14 10° NNW
USA 238 DEB 3.7 19:02:01 10° SSW 19:08:34 64° SE 19:15:26 10° NE
USA 238 3.7 19:02:08 10° SSW 19:08:40 64° SE 19:15:32 10° NE
COSMOS 2428 4.5 19:05:45 10° NNW 19:10:10 22° NNE 19:14:34 10° E
Cosmos 1867 3.6 19:05:09 10° SW 19:10:36 88° NW 19:16:07 10° NE
Cosmos 1933 Rocket 4.0 19:07:21 10° SSE 19:11:32 43° E 19:15:46 10° NNE
Cosmos 1666 Rocket 3.9 19:07:41 10° SSW 19:11:59 69° WNW 19:16:22 10° N
CENTAUR R/B 2.8 19:06:36 10° S 19:12:15 45° ESE 19:18:55 10° NE
DMSP B5D2-2 4.4 19:07:37 10° NNE 19:12:52 74° WNW 19:18:06 10° SSW
Cosmos 2237 Rocket 4.5 19:10:59 10° NNW 19:14:08 15° NNE 19:17:16 10° NE
Cosmos 1954 Rocket 4.0 19:09:42 10° SSW 19:15:02 87° ESE 19:20:24 10° NNE
Meteor 1-20 Rocket 4.3 19:09:43 10° S 19:15:29 65° E 19:21:17 10° NNE
Spot 2 Rocket 3.7 19:11:05 10° SE 19:16:00 58° ENE 19:21:01 10° N
Cosmos 405 Rocket 2.8 19:16:11 10° S 19:19:47 51° E 19:23:29 10° NNE
Okean 1-7 3.4 19:17:26 10° N 19:21:38 48° ENE 19:25:00 15° SE
Cosmos 1515 4.0 19:18:01 10° N 19:21:47 49° ENE 19:24:41 15° SSE
Cosmos 1741 Rocket 4.3 19:17:57 10° S 19:22:56 44° ESE 19:27:57 10° NE
Cosmos 1763 Rocket 3.6 19:23:00 10° NNW 19:28:21 81° WSW 19:33:12 12° SSE
Cosmos 2333 Rocket 3.6 19:23:32 10° NNW 19:28:33 29° NE 19:33:20 11° E
Cosmos 1437 Rocket 2.7 19:25:15 10° N 19:29:03 65° ENE 19:31:55 16° SSE
Cosmos 1570 Rocket 4.2 19:25:03 10° NNW 19:30:22 64° ENE 19:34:32 17° SE
Cosmos 1703 Rocket 3.5 19:27:21 10° N 19:31:42 67° ENE 19:35:10 15° SSE
FALCON 9 DEB 3.2 19:29:07 10° W 19:32:38 80° N 19:36:09 10° E
H-2A R/B 3.5 19:29:28 10° NNE 19:33:33 59° ESE 19:37:39 10° S
OBJECT-B 3.1 19:32:05 10° SSW 19:34:49 24° W 19:37:34 10° NW
Cosmos 2084 Rocket 3.5 19:33:05 10° SSW 19:37:09 50° SE 19:41:19 10° NE
Cosmos 1633 Rocket 4.2 19:34:41 10° SSW 19:38:56 46° WNW 19:43:13 10° N
Cosmos 1184 Rocket 4.1 19:36:36 10° SW 19:39:45 43° WNW 19:42:56 10° N
Cosmos 921 Rocket 4.4 19:36:44 10° NW 19:40:33 34° WSW 19:44:20 10° SSW
Landsat 7 3.8 19:36:27 13° SSE 19:40:38 89° ENE 19:45:27 10° NNW
SPOT 5 3.2 19:38:25 19° SE 19:41:11 44° ENE 19:45:27 10° N
Cosmos 2208 Rocket 4.1 19:36:32 10° NNW 19:41:48 66° ENE 19:45:27 20° SE
MetOp-B 4.4 19:40:59 10° S 19:46:18 67° WSW 19:51:40 10° NNW
Meteor 1-19 Rocket 4.3 19:44:37 10° NNW 19:50:03 77° W 19:54:58 13° S
CZ-2C R/B 4.2 19:47:34 10° N 19:52:17 36° WNW 19:57:02 10° SW
Okean 1 3.9 19:48:38 10° NNW 19:52:38 57° W 19:56:09 13° S
Cosmos 1605 Rocket 4.1 19:47:41 10° SSW 19:53:47 75° W 19:59:55 10° N
ERBS 3.4 19:51:45 10° WNW 19:54:55 39° NNE 19:57:19 15° E
USA 267 3.6 19:49:24 10° ENE 19:55:31 40° SE 20:01:35 10° SSW
Cosmos 2100 Rocket 4.1 19:52:15 16° SSE 19:57:05 54° E 20:03:03 10° NNE
NOSS 3-2 (A) 3.7 19:52:51 10° SW 19:58:44 75° NW 20:05:36 10° NE
Meteor 2-4 Rocket 3.6 19:53:04 10° NNW 19:58:44 81° ENE 20:02:35 20° SSE
Cosmos 2219 Rocket 3.2 19:53:36 10° NNW 19:58:54 38° NE 20:02:41 18° ESE
Lacrosse 4 Rocket 2.8 20:01:23 21° E 20:01:23 21° E 20:04:04 10° ENE
Cosmos 2173 Rocket 4.1 19:56:36 17° SSE 20:01:10 54° E 20:07:06 10° NNE
Cosmos 540 Rocket 3.5 19:56:05 10° NNW 20:01:17 82° WSW 20:04:38 22° SSE
SL-16 R/B 2.7 19:56:41 10° NW 20:02:12 53° WSW 20:06:27 17° S
SL-4 R/B 1.7 20:01:27 10° W 20:05:22 86° S 20:07:24 25° E
BREEZE-M DEB (TANK) 2.9 20:02:52 10° W 20:05:57 67° S 20:15:13 10° E
SL-27 R/B 2.2 20:04:27 12° SSW 20:07:28 88° WNW 20:10:49 10° NNE
NOSS 3-2 (C) 3.4 20:03:28 10° SW 20:09:20 90° NNE 20:16:09 10° NE
Cosmos 2322 4.0 20:06:40 10° NNW 20:12:17 58° NE 20:15:30 25° ESE
BREEZE-M DEB (TANK) 3.1 20:11:10 10° W 20:12:31 25° SW 20:12:31 25° SW
Cosmos 2082 Rocket 3.9 20:08:48 10° WSW 20:14:00 36° NW 20:19:13 10° NNE
Cosmos 1459 Rocket 4.0 20:09:17 18° S 20:14:07 66° E 20:20:27 10° NNE
Cosmos 1242 Rocket 3.5 20:12:40 10° N 20:16:03 34° ENE 20:16:53 30° E
Meteor 1-13 Rocket 4.1 20:12:20 10° N 20:17:53 74° ENE 20:20:56 27° SSE
SAR-Lupe-2 3.6 20:15:15 10° NNE 20:18:48 56° ESE 20:19:45 41° SSE
ERS-1 Rocket 3.0 20:16:15 24° S 20:19:21 77° WSW 20:24:25 10° NNW
Cosmos 2322 Rocket 2.9 20:14:02 10° NW 20:19:29 49° WSW 20:23:14 20° S
Cosmos 2016 Rocket 4.2 20:17:44 24° SSE 20:21:25 53° E 20:27:36 10° NNE
Cosmos 1850 Rocket 4.5 20:20:44 10° SW 20:25:59 63° WNW 20:31:14 10° NNE
Cosmos 2221 Rocket 3.6 20:21:48 10° N 20:26:19 75° E 20:28:08 35° SSE
Cosmos 841 Rocket 4.1 20:21:45 10° NNW 20:26:50 52° WSW 20:29:56 23° S
Cosmos 2333 4.3 20:21:25 10° NNW 20:27:14 71° ENE 20:30:11 30° SE
Cosmos 1500 3.1 20:25:36 29° SSW 20:27:26 82° W 20:31:13 10° N
SPOT 1/Viking Rocket 4.3 20:23:32 17° S 20:27:26 48° W 20:32:31 10° NNW
Cosmos 1536 3.3 20:27:22 37° ESE 20:27:55 39° E 20:31:39 10° NNE
Cosmos 2360 Rocket 2.3 20:23:10 10° NW 20:28:50 70° WSW 20:31:48 29° SSE
SL-16 R/B 4.5 20:26:08 10° NNW 20:29:53 17° NNE 20:33:37 10° ENE
Terra 1.8 20:27:56 32° SSE 20:30:11 89° ENE 20:34:59 10° NNW
Okean 3 3.5 20:26:00 10° NNW 20:30:20 83° W 20:32:07 35° S
USA 276 4.3 20:28:37 10° WSW 20:30:10 16° SW 20:30:10 16° SW
Cosmos 2237 4.5 20:27:21 10° NW 20:32:59 61° WSW 20:35:58 28° S
USA 234 3.2 20:29:00 26° SE 20:32:59 76° SSW 20:39:34 10° WNW
ATLAS 3B R/B 2.6 20:27:57 10° SSW 20:34:24 60° SE 20:40:56 10° NE
Cosmos 1666 2.7 20:37:37 52° SE 20:38:11 60° E 20:41:55 10° NNE
COSMOS 2487 3.1 20:39:01 38° E 20:39:01 38° E 20:41:46 10° NE
Lacrosse 5 3.9 20:36:47 10° W 20:39:46 16° WSW 20:41:50 13° SSW
Resurs 01 Rocket 4.2 20:37:46 10° WSW 20:40:10 14° W 20:42:34 10° NW
Iridium 4 Rocket 2.9 20:38:44 37° S 20:40:20 89° WSW 20:44:32 10° N
CARTOSAT-1 4.4 20:40:31 24° SSW 20:42:42 44° W 20:46:53 10° NNW
Cosmos 1378 3.7 20:42:45 10° N 20:46:19 41° ENE 20:46:39 40° E
Cosmos 2233 Rocket 4.3 20:49:34 33° SE 20:51:58 49° E 20:58:02 10° NNE
Cosmos 2061 Rocket 3.9 20:50:45 27° S 20:54:21 85° E 21:00:35 10° N
COSMOS 2428 2.8 20:49:42 10° NNW 20:55:28 73° ENE 20:57:48 37° SE
Cosmos 1802 Rocket 4.1 20:54:58 21° SSW 20:59:24 78° W 21:05:45 10° N
Cosmos 2237 Rocket 3.2 20:54:34 10° NNW 20:59:53 39° NE 21:02:46 23° E
Cosmos 1743 3.6 21:00:17 34° E 21:00:17 34° E 21:03:34 10° NNE
Cosmos 44 Rocket 3.3 20:57:45 10° NW 21:02:45 87° SW 21:04:15 47° SE
CENTAUR R/B 3.2 20:56:33 10° WSW 21:02:47 60° NW 21:10:14 10° NE
NOSS 0 Rocket 4.3 20:58:44 10° NNW 21:04:57 60° NE 21:07:51 32° ESE
Cosmos 1271 Rocket 2.7 21:05:24 10° N 21:09:12 66° ENE 21:09:24 64° E
FALCON 9 DEB 3.1 21:06:16 10° WNW 21:09:36 79° WNW 21:09:36 79° WNW
Cosmos 1674 Rocket 3.5 21:08:44 10° NNW 21:13:07 81° W 21:13:54 58° S
Cosmos 2333 Rocket 2.2 21:07:38 10° NNW 21:13:25 75° WSW 21:15:19 43° SSE
ATLAS 5 CENTAUR R/B 2.7 21:11:23 10° WNW 21:14:14 44° SW 21:14:58 41° SSW
Cosmos 1503 Rocket 4.4 21:17:56 42° ESE 21:18:30 44° ESE 21:23:34 10° NE
Cosmos 1066 Rocket 4.4 21:13:52 10° NNW 21:19:29 65° W 21:21:30 39° SSW
SPOT 5 4.4 21:17:39 19° SW 21:19:30 25° W 21:23:11 10° NW
Geosat 4.1 21:18:02 44° ESE 21:19:34 70° NE 21:24:36 10° NNW
Cosmos 1486 Rocket 3.9 21:22:06 47° S 21:23:35 77° ESE 21:28:49 10° NNE
BREEZE-M DEB (TANK) 4.3 21:14:01 10° W 21:27:35 52° SSW 21:28:57 43° SSE
CRYOSAT 2 4.3 21:24:03 10° N 21:28:58 81° W 21:30:14 50° SSW
Cosmos 1733 Rocket 3.5 21:29:41 42° SW 21:30:53 59° WNW 21:35:18 10° N
ERBS 3.5 21:28:03 10° WNW 21:30:13 36° WNW 21:30:13 36° WNW
Meteor 1-11 Rocket 4.4 21:31:46 23° SW 21:35:13 53° WNW 21:40:57 10° N
Tsikada Rocket 4.5 21:29:55 10° NNW 21:36:04 54° W 21:38:45 32° SSW
Cosmos 773 Rocket 4.2 21:31:10 10° NNW 21:36:17 60° ENE 21:37:33 46° ESE
Cosmos 968 Rocket 3.3 21:37:25 52° SSW 21:38:43 87° ESE 21:43:54 10° NNE
USA 267 3.2 21:32:24 10° ENE 21:38:59 88° NNW 21:45:33 10° WSW
Lacrosse 4 Rocket 1.8 21:37:37 34° WSW 21:39:14 60° NW 21:43:22 10° NNE
Cosmos 2227 Rocket 3.8 21:40:11 20° E 21:40:11 20° E 21:43:53 10° NE
ALOS 2 2.8 21:39:37 55° E 21:40:04 58° ENE 21:44:24 10° N
Helios 1A 4.4 21:41:31 26° E 21:42:14 28° ENE 21:45:51 10° N
Cosmos 2219 Rocket 2.6 21:37:33 10° NW 21:43:05 52° WSW 21:44:23 43° SSW
SL-4 R/B 3.4 21:41:13 10° W 21:42:58 24° W 21:42:58 24° W
Cosmos 1707 4.0 21:43:07 10° N 21:46:37 31° ENE 21:46:37 31° ENE
Cosmos 1242 Rocket 4.4 21:47:53 10° NW 21:50:45 22° W 21:50:53 22° W
EO 1 Del DPAF 3.6 21:50:02 10° NNE 21:53:13 57° NE 21:53:13 57° NE
Cosmos 1538 Rocket 4.4 21:48:52 10° NNW 21:53:58 55° ENE 21:55:15 44° ESE
Cosmos 1782 Rocket 3.6 21:58:07 63° E 21:58:07 63° E 22:02:19 10° NNE
Spot 4 4.1 21:58:19 50° SW 21:58:59 55° W 22:03:45 10° NNW
Cosmos 1607 4.3 21:53:47 10° NW 22:00:13 66° NE 22:03:21 32° ESE
Cosmos 1842 3.4 21:58:14 10° NNW 22:01:52 70° NW 22:01:52 70° NW
Cosmos 1908 Rocket 3.6 22:04:49 62° WSW 22:05:10 66° WNW 22:09:31 10° N
Terra 4.1 22:06:49 12° WSW 22:08:37 14° W 22:11:13 10° NW
Cosmos 2344 4.3 21:59:45 10° NW 22:08:50 89° NE 22:17:17 24° SE
Cosmos 2360 Rocket 4.3 22:09:13 10° WNW 22:11:47 13° W 22:13:33 12° WSW
SL-16 R/B 2.8 22:09:50 10° NNW 22:15:24 51° NE 22:17:41 33° ESE
USA 234 4.2 22:16:20 29° SW 22:16:41 29° SW 22:22:16 10° WNW
MOS 1-B Rocket 4.5 22:15:09 10° N 22:20:34 49° WNW 22:23:10 29° WSW
ATLAS 3B R/B 3.5 22:18:56 10° WSW 22:25:18 49° NNW 22:31:49 10° NE
Cosmos 1354 Rocket 4.2 22:23:58 49° SW 22:25:21 70° WNW 22:30:42 10° NNE
Cosmos 1975 Rocket 3.4 22:22:51 10° NNW 22:27:15 54° W 22:27:17 54° W
Cosmos 1300 Rocket 4.0 22:28:47 49° E 22:28:47 49° E 22:32:40 10° NNE
SL-24 DEB 4.2 22:24:32 10° N 22:29:20 78° W 22:29:43 71° SW
Cosmos 1544 4.2 22:30:39 39° WNW 22:30:39 39° WNW 22:33:53 10° N
Meteor 1-21 4.5 22:26:12 10° NNW 22:31:53 58° W 22:33:00 49° SW
Cosmos 2297 Rocket 2.4 22:32:12 51° SE 22:32:37 53° ESE 22:38:07 10° NE
Cosmos 1680 Rocket 4.3 22:28:14 10° NNW 22:33:16 44° ENE 22:35:05 32° ESE
Thor Agena Rocket 4.1 22:28:38 10° N 22:33:35 52° WNW 22:35:03 39° WSW
Nimbus 7 Rocket 4.4 22:29:37 10° NNE 22:35:31 80° WNW 22:37:08 50° SSW
In-Cosmos 22 4.1 22:30:16 10° N 22:35:50 74° ENE 22:36:51 58° SE
Cosmos 1743 4.5 22:35:21 24° W 22:35:52 25° WNW 22:39:08 10° NNW
Cosmos 1975 3.5 22:36:15 47° WNW 22:36:15 47° WNW 22:40:09 10° N
Cosmos 1980 3.9 22:30:52 10° NW 22:36:22 52° WSW 22:36:58 50° SW
Meteor 2-9 Rocket 4.3 22:35:05 52° SW 22:36:28 72° WNW 22:42:18 10° N
COSMOS 2428 4.1 22:34:44 10° NW 22:39:13 24° WSW 22:39:48 24° WSW
Cosmos 1777 Rocket 3.9 22:39:10 65° SSE 22:39:39 70° ESE 22:44:56 10° NNE
Timation 2 Rocket 3.8 22:39:51 52° SSW 22:41:28 89° ESE 22:47:30 10° NNE
Cosmos 1025 Rocket 2.9 22:38:25 10° N 22:42:31 82° N 22:42:31 82° N
Cosmos 2237 Rocket 2.5 22:38:41 10° NW 22:44:07 49° WSW 22:44:34 48° SW
SJ 16-02 2.9 22:47:38 25° E 22:47:38 25° E 22:50:50 10° NE
Cosmos 2219 3.1 22:46:31 63° S 22:47:20 75° ESE 22:52:57 10° NNE
Cosmos 1464 Rocket 4.1 22:46:11 46° SW 22:48:00 68° WNW 22:54:10 10° N
Meteor 2-13 Rocket 4.5 22:41:58 10° N 22:48:06 74° ENE 22:49:46 50° SSE
Okean 1 Rocket 4.2 22:50:07 31° E 22:50:07 31° E 22:53:59 10° NNE
Nadezhda 4 Rocket 4.1 22:47:16 10° NNW 22:53:28 66° W 22:54:56 51° SSW
Okean 2 Rocket 3.0 22:53:44 89° WSW 22:53:45 89° W 22:58:18 10° N
CENTAUR R/B 4.4 22:48:40 10° WNW 22:54:56 36° N 23:02:08 10° ENE
Cosmos 2333 Rocket 4.2 22:53:39 10° WNW 22:56:43 15° W 22:57:19 15° WSW
Cosmos 1674 3.3 22:53:51 10° N 22:57:04 50° NE 22:57:04 50° NE
CZ-2D R/B 4.2 22:59:40 10° NE 23:03:09 17° E 23:05:05 14° ESE
Cosmos 923 Rocket 3.9 23:01:32 10° NNW 23:06:54 88° WSW 23:07:42 66° SSE
Cosmos 1943 4.4 23:08:17 10° NNW 23:13:33 39° NE 23:18:27 12° ESE
Cosmos 1092 Rocket 4.0 23:09:04 10° NNW 23:15:17 71° W 23:16:44 52° SSW
Sich 1 Rocket 4.5 23:15:13 37° W 23:15:33 38° WNW 23:19:42 10° N
ALOS 2 4.4 23:17:00 19° W 23:17:00 19° W 23:19:59 10° NW
NOSS 3-1 (C) 4.0 23:16:43 36° SE 23:17:12 37° ESE 23:22:57 10° NE
Helios 1A 3.9 23:18:09 38° W 23:18:09 38° W 23:21:39 10° NNW
Cosmos 1626 3.1 23:15:07 10° N 23:18:35 40° ENE 23:18:35 40° ENE
Lacrosse 4 Rocket 4.2 23:16:06 10° WNW 23:18:44 16° NNW 23:21:22 10° N
Cosmos 2034 Rocket 4.4 23:19:27 40° SW 23:21:25 55° WNW 23:27:41 10° N
USA 267 3.8 23:15:25 10° ENE 23:21:49 60° N 23:28:14 10° W
Cosmos 1707 4.3 23:19:06 10° NNW 23:21:46 26° WNW 23:21:46 26° WNW
Cosmos 2227 Rocket 2.1 23:22:00 56° SW 23:23:17 84° WNW 23:29:00 10° NNE
Cosmos 1733 4.2 23:24:08 39° E 23:24:08 39° E 23:27:28 10° NNE
Cosmos 1461 3.3 23:24:34 57° ESE 23:24:34 57° ESE 23:28:47 10° NE
Cosmos 1766 3.9 23:26:28 48° ENE 23:26:28 48° ENE 23:29:54 10° NNE
Cosmos 2151 Rocket 3.7 23:26:48 59° W 23:26:56 60° WNW 23:31:18 10° N
Cosmos 1892 Rocket 4.3 23:22:40 10° N 23:26:59 45° ENE 23:27:50 40° ESE
Cosmos 1536 Rocket 4.3 23:25:54 10° NNW 23:29:39 40° W 23:29:39 40° W
Resurs 1-4 Rocket 3.5 23:29:22 10° NE 23:33:51 27° E 23:35:32 23° ESE
Meteor 2-5 Rocket 3.6 23:29:55 10° NNW 23:35:33 90° WSW 23:36:52 55° SSE
Landsat 4 4.0 23:32:24 10° N 23:35:51 62° NW 23:35:51 62° NW
Cosmos 1470 4.4 23:39:13 24° E 23:39:41 25° E 23:42:59 10° NNE
Cosmos 1805 3.2 23:45:52 77° NNW 23:45:52 77° NNW 23:49:32 10° N
Cosmos 158 Rocket 4.1 23:40:48 10° NNW 23:46:05 57° WSW 23:46:39 54° SW
Spot 1 4.0 23:49:42 62° ESE 23:50:08 69° ENE 23:54:13 10° NNW
Cosmos 2082 3.6 23:48:47 53° SSW 23:50:11 88° NW 23:55:51 10° NNE
Cosmos 1937 Rocket 4.1 23:49:29 39° SE 23:50:38 45° ESE 23:55:42 10° NE
Cosmos 990 Rocket 4.1 23:50:28 53° SSE 23:51:25 64° ESE 23:56:32 10° NNE
DELTA 2 DEB (DPAF) 4.3 23:52:22 51° SE 23:53:20 68° ENE 23:57:46 10° N
Helios 1B rocket 2.4 23:50:04 10° N 23:54:10 71° WNW 23:54:18 70° W
PSLV R/B 4.2 23:49:40 10° N 23:54:17 53° WNW 23:55:06 46° WSW
